When you browse on this site, cookies collect data to enhance your experience and personalize the content and advertising you see.
Visit our Privacy Policy to learn more. By continuing to use the site, you agree to this use of cookies and data.
  • In Hungary
  • List of Countries
  • For 7 days
  • Water Temperature
  • Weather Map
  • News
  • Weather Widgets
  • user-avatar
    Login

    Hourly Weather El Cerrito

    Today, 17 November, Sunday

    Time Temperature Precipitation Wind Pressure Humidity
    00:00 +14°C° 0 mm 0 mps 754 mmHg 75%
    01:00 +14°C° 0 mm 0 mps 754 mmHg 76%
    02:00 +14°C° 0 mm 0 mps 754 mmHg 74%
    03:00 +15°C° 0 mm 1 mps 754 mmHg 72%
    04:00 +15°C° 0 mm 1 mps 754 mmHg 71%
    05:00 +14°C° 0 mm 1 mps 754 mmHg 64%
    06:00 +14°C° 0 mm 1 mps 754 mmHg 58%
    07:00 +13°C° 0 mm 1 mps 754 mmHg 51%
    08:00 +15°C° 0 mm 1 mps 754 mmHg 48%
    09:00 +17°C° 0 mm 2 mps 754 mmHg 45%
    10:00 +19°C° 0 mm 2 mps 754 mmHg 42%
    11:00 +20°C° 0 mm 2 mps 754 mmHg 39%
    12:00 +23°C° 0 mm 2 mps 753 mmHg 36%
    13:00 +24°C° 0 mm 2 mps 753 mmHg 33%
    14:00 +24°C° 0 mm 1 mps 752 mmHg 33%
    15:00 +24°C° 0 mm 1 mps 752 mmHg 32%
    16:00 +24°C° 0 mm 1 mps 752 mmHg 32%
    17:00 +22°C° 0 mm 1 mps 752 mmHg 35%
    18:00 +21°C° 0 mm 1 mps 752 mmHg 38%
    19:00 +19°C° 0 mm 1 mps 752 mmHg 41%
    20:00 +19°C° 0 mm 1 mps 752 mmHg 42%
    21:00 +19°C° 0 mm 1 mps 752 mmHg 43%
    22:00 +16°C° 0 mm 0 mps 752 mmHg 44%
    23:00 +18°C° 0 mm 1 mps 752 mmHg 44%

    Tomorrow, 18 November, Monday

    Time Temperature Precipitation Wind Pressure Humidity
    00:00 +18°C° 0 mm 1 mps 752 mmHg 44%
    01:00 +16°C° 0 mm 1 mps 752 mmHg 44%
    02:00 +16°C° 0 mm 1 mps 752 mmHg 46%
    03:00 +15°C° 0 mm 1 mps 752 mmHg 48%
    04:00 +15°C° 0 mm 1 mps 751 mmHg 50%
    05:00 +15°C° 0 mm 1 mps 751 mmHg 53%
    06:00 +14°C° 0 mm 1 mps 752 mmHg 55%
    07:00 +14°C° 0 mm 1 mps 752 mmHg 57%
    08:00 +16°C° 0 mm 1 mps 752 mmHg 53%
    09:00 +19°C° 0 mm 1 mps 752 mmHg 48%
    10:00 +21°C° 0 mm 1 mps 752 mmHg 43%
    11:00 +22°C° 0 mm 1 mps 751 mmHg 40%
    12:00 +23°C° 0 mm 1 mps 750 mmHg 37%
    13:00 +25°C° 0 mm 1 mps 750 mmHg 34%
    14:00 +24°C° 0 mm 1 mps 750 mmHg 35%
    15:00 +24°C° 0 mm 1 mps 749 mmHg 35%
    16:00 +23°C° 0 mm 2 mps 749 mmHg 36%
    17:00 +20°C° 0 mm 2 mps 749 mmHg 41%
    18:00 +19°C° 0 mm 2 mps 749 mmHg 46%
    19:00 +17°C° 0 mm 2 mps 749 mmHg 50%
    20:00 +18°C° 0 mm 1 mps 749 mmHg 55%
    21:00 +16°C° 0 mm 1 mps 749 mmHg 60%
    22:00 +16°C° 0 mm 1 mps 749 mmHg 64%
    23:00 +16°C° 0 mm 1 mps 749 mmHg 69%

    Day after tomorrow, 19 November, Tuesday

    Time Temperature Precipitation Wind Pressure Humidity
    00:00 +15°C° 0 mm 2 mps 748 mmHg 74%
    01:00 +15°C° 0 mm 2 mps 748 mmHg 78%
    02:00 +15°C° 0 mm 2 mps 748 mmHg 82%
    03:00 +15°C° 0 mm 2 mps 748 mmHg 85%
    04:00 +14°C° 0 mm 2 mps 748 mmHg 88%
    05:00 +14°C° 0 mm 2 mps 748 mmHg 89%
    06:00 +13°C° 0 mm 3 mps 748 mmHg 90%
    07:00 +13°C° 0 mm 3 mps 748 mmHg 90%
    08:00 +14°C° 0 mm 3 mps 747 mmHg 82%
    09:00 +15°C° 0 mm 4 mps 747 mmHg 74%
    10:00 +15°C° 0 mm 4 mps 747 mmHg 65%
    11:00 +17°C° 0 mm 4 mps 747 mmHg 59%
    12:00 +18°C° 0 mm 4 mps 746 mmHg 54%
    13:00 +17°C° 0 mm 5 mps 745 mmHg 48%
    14:00 +17°C° 0 mm 5 mps 745 mmHg 49%
    15:00 +18°C° 0 mm 4 mps 744 mmHg 51%
    16:00 +17°C° 0 mm 4 mps 744 mmHg 52%
    17:00 +15°C° 0 mm 4 mps 744 mmHg 58%
    18:00 +14°C° 0 mm 3 mps 743 mmHg 64%
    19:00 +14°C° 0 mm 2 mps 743 mmHg 70%
    20:00 +13°C° 0 mm 2 mps 743 mmHg 72%
    21:00 +13°C° 0 mm 2 mps 743 mmHg 73%
    22:00 +12°C° 0 mm 2 mps 743 mmHg 74%
    23:00 +12°C° 0 mm 2 mps 743 mmHg 72%

    20 November, Wednesday

    Time Temperature Precipitation Wind Pressure Humidity
    00:00 +12°C° 0 mm 2 mps 742 mmHg 70%
    01:00 +12°C° 0 mm 2 mps 742 mmHg 68%
    02:00 +12°C° 0 mm 1 mps 742 mmHg 66%
    03:00 +11°C° 0 mm 1 mps 742 mmHg 65%
    04:00 +11°C° 0 mm 1 mps 742 mmHg 63%
    05:00 +11°C° 0 mm 1 mps 742 mmHg 62%
    06:00 +11°C° 0 mm 1 mps 742 mmHg 62%
    07:00 +11°C° 0 mm 1 mps 742 mmHg 61%
    08:00 +13°C° 0 mm 2 mps 743 mmHg 53%
    09:00 +14°C° 0 mm 2 mps 743 mmHg 45%
    10:00 +16°C° 0 mm 3 mps 743 mmHg 36%
    11:00 +17°C° 0 mm 3 mps 742 mmHg 33%
    12:00 +18°C° 0 mm 4 mps 742 mmHg 30%
    13:00 +19°C° 0 mm 5 mps 741 mmHg 26%
    14:00 +19°C° 0 mm 5 mps 741 mmHg 26%
    15:00 +19°C° 0 mm 5 mps 741 mmHg 26%
    16:00 +19°C° 0 mm 5 mps 741 mmHg 25%
    17:00 +17°C° 0 mm 5 mps 741 mmHg 27%
    18:00 +16°C° 0 mm 6 mps 742 mmHg 30%
    19:00 +15°C° 0 mm 6 mps 742 mmHg 32%
    20:00 +14°C° 0 mm 5 mps 742 mmHg 33%
    21:00 +13°C° 0 mm 4 mps 743 mmHg 34%
    22:00 +13°C° 0 mm 4 mps 743 mmHg 35%
    23:00 +12°C° 0 mm 4 mps 744 mmHg 35%

    21 November, Thursday

    Time Temperature Precipitation Wind Pressure Humidity
    00:00 +11°C° 0 mm 4 mps 744 mmHg 35%
    01:00 +11°C° 0 mm 4 mps 745 mmHg 34%
    02:00 +10°C° 0 mm 4 mps 745 mmHg 35%
    03:00 +10°C° 0 mm 3 mps 746 mmHg 35%
    04:00 +9°C° 0 mm 3 mps 746 mmHg 36%
    05:00 +9°C° 0 mm 3 mps 747 mmHg 37%
    06:00 +8°C° 0 mm 3 mps 747 mmHg 39%
    07:00 +8°C° 0 mm 3 mps 747 mmHg 40%
    08:00 +9°C° 0 mm 2 mps 748 mmHg 39%
    09:00 +12°C° 0 mm 2 mps 748 mmHg 38%
    10:00 +13°C° 0 mm 2 mps 749 mmHg 36%
    11:00 +15°C° 0 mm 2 mps 749 mmHg 37%
    12:00 +16°C° 0 mm 1 mps 749 mmHg 37%
    13:00 +18°C° 0 mm 1 mps 749 mmHg 37%
    14:00 +18°C° 0 mm 1 mps 749 mmHg 38%
    15:00 +18°C° 0 mm 1 mps 749 mmHg 39%
    16:00 +18°C° 0 mm 1 mps 750 mmHg 40%
    17:00 +15°C° 0 mm 1 mps 750 mmHg 44%
    18:00 +14°C° 0 mm 1 mps 751 mmHg 47%
    19:00 +13°C° 0 mm 1 mps 751 mmHg 51%
    20:00 +13°C° 0 mm 1 mps 752 mmHg 53%
    21:00 +11°C° 0 mm 0 mps 752 mmHg 55%
    22:00 +11°C° 0 mm 0 mps 752 mmHg 57%
    23:00 +12°C° 0 mm 1 mps 753 mmHg 57%

    22 November, Friday

    Time Temperature Precipitation Wind Pressure Humidity
    00:00 +12°C° 0 mm 1 mps 753 mmHg 56%
    01:00 +12°C° 0 mm 1 mps 753 mmHg 56%
    02:00 +12°C° 0 mm 1 mps 753 mmHg 57%
    03:00 +12°C° 0 mm 1 mps 754 mmHg 58%
    04:00 +12°C° 0 mm 1 mps 754 mmHg 59%
    05:00 +11°C° 0 mm 1 mps 754 mmHg 60%
    06:00 +11°C° 0 mm 1 mps 754 mmHg 62%
    07:00 +9°C° 0 mm 2 mps 755 mmHg 64%
    08:00 +10°C° 0 mm 2 mps 755 mmHg 58%
    09:00 +13°C° 0 mm 2 mps 755 mmHg 52%
    10:00 +14°C° 0 mm 2 mps 756 mmHg 46%
    11:00 +15°C° 0 mm 2 mps 755 mmHg 44%
    12:00 +16°C° 0 mm 1 mps 755 mmHg 41%
    13:00 +19°C° 0 mm 1 mps 755 mmHg 39%
    14:00 +19°C° 0 mm 1 mps 755 mmHg 39%
    15:00 +18°C° 0 mm 1 mps 755 mmHg 40%
    16:00 +18°C° 0 mm 1 mps 755 mmHg 40%
    17:00 +16°C° 0 mm 1 mps 755 mmHg 42%
    18:00 +16°C° 0 mm 1 mps 755 mmHg 45%
    19:00 +15°C° 0 mm 1 mps 755 mmHg 47%
    20:00 +14°C° 0 mm 1 mps 755 mmHg 48%
    21:00 +14°C° 0 mm 1 mps 755 mmHg 48%
    22:00 +14°C° 0 mm 1 mps 756 mmHg 49%
    23:00 +14°C° 0 mm 1 mps 755 mmHg 50%
    Show more